owner,sensor,date,latitude,longitude,vertical_datum,wind_speed,wind_to_direction,wind_speed_of_gust,qcFlag 
ADCP,ioos:station:wmo:42887:1,2013-08-01T00:00:00Z,28.1910,-88.4960,48.2,1.5,252.0,99.0,'11111222,11111222,11144222' 
ADCP,ioos:station:wmo:42887:1,2013-08-01T00:20:00Z,28.1910,-88.4960,48.2,0.7,232.0,99.0,'11111222,11111222,11144222' 
ADCP,ioos:station:wmo:42887:1,2013-08-01T00:40:00Z,28.1910,-88.4960,48.2,0.3,238.0,99.0,'11111222,11111222,11144222' 
ADCP,ioos:station:wmo:42887:1,2013-08-01T01:00:00Z,28.1910,-88.4960,48.2,0.2,242.0,99.0,'11111222,11111222,11144222' 
ADCP,ioos:station:wmo:42887:1,2013-08-01T01:20:00Z,28.1910,-88.4960,48.2,0.4,130.0,99.0,'11111222,11111222,11144222' 
ADCP,ioos:station:wmo:42887:1,2013-08-01T01:40:00Z,28.1910,-88.4960,48.2,1.0,219.0,99.0,'11111222,11111222,11144222' 
ADCP,ioos:station:wmo:42887:1,2013-08-01T02:00:00Z,28.1910,-88.4960,48.2,0.2,90.0,99.0,'11111222,11111222,11144222' 
ADCP,ioos:station:wmo:42887:1,2013-08-01T02:20:00Z,28.1910,-88.4960,48.2,0.9,224.0,99.0,'11111222,11111222,11144222' 
ADCP,ioos:station:wmo:42887:1,2013-08-01T02:40:00Z,28.1910,-88.4960,48.2,0.3,271.0,99.0,'11111222,11111222,11144222' 
ADCP,ioos:station:wmo:42887:1,2013-08-01T03:00:00Z,28.1910,-88.4960,48.2,1.5,243.0,99.0,'11111222,11111222,11144222' 
ADCP,ioos:station:wmo:42887:1,2013-08-01T03:20:00Z,28.1910,-88.4960,48.2,2.5,251.0,99.0,'11111222,11111222,11144222' 
ADCP,ioos:station:wmo:42887:1,2013-08-01T03:40:00Z,28.1910,-88.4960,48.2,1.8,243.0,99.0,'11111222,11111222,11144222' 
ADCP,ioos:station:wmo:42887:1,2013-08-01T04:00:00Z,28.1910,-88.4960,48.2,2.9,217.0,99.0,'11111222,11111222,11144222' 
ADCP,ioos:station:wmo:42887:1,2013-08-01T04:20:00Z,28.1910,-88.4960,48.2,3.6,225.0,99.0,'11111222,11111222,11144222' 
ADCP,ioos:station:wmo:42887:1,2013-08-01T04:40:00Z,28.1910,-88.4960,48.2,2.0,255.0,99.0,'11111222,11111222,11144222' 
ADCP,ioos:station:wmo:42887:1,2013-08-01T05:00:00Z,28.1910,-88.4960,48.2,3.2,227.0,99.0,'11111222,11111222,11144222' 
ADCP,ioos:station:wmo:42887:1,2013-08-01T05:20:00Z,28.1910,-88.4960,48.2,2.4,226.0,99.0,'11111222,11111222,11144222' 
ADCP,ioos:station:wmo:42887:1,2013-08-01T05:40:00Z,28.1910,-88.4960,48.2,1.4,241.0,99.0,'11111222,11111222,11144222' 
ADCP,ioos:station:wmo:42887:1,2013-08-01T06:00:00Z,28.1910,-88.4960,48.2,3.6,224.0,99.0,'11111222,11111222,11144222' 
ADCP,ioos:station:wmo:42887:1,2013-08-01T06:20:00Z,28.1910,-88.4960,48.2,2.3,231.0,99.0,'11111222,11111222,11144222' 
ADCP,ioos:station:wmo:42887:1,2013-08-01T06:40:00Z,28.1910,-88.4960,48.2,2.5,248.0,99.0,'11111222,11111222,11144222' 
ADCP,ioos:station:wmo:42887:1,2013-08-01T07:00:00Z,28.1910,-88.4960,48.2,0.7,267.0,99.0,'11111222,11111222,11144222' 
ADCP,ioos:station:wmo:42887:1,2013-08-01T07:20:00Z,28.1910,-88.4960,48.2,3.1,254.0,99.0,'11111222,11111222,11144222' 
ADCP,ioos:station:wmo:42887:1,2013-08-01T07:40:00Z,28.1910,-88.4960,48.2,2.8,252.0,99.0,'11111222,11111222,11144222' 
ADCP,ioos:station:wmo:42887:1,2013-08-01T08:00:00Z,28.1910,-88.4960,48.2,3.6,247.0,99.0,'11111222,11111222,11144222' 
ADCP,ioos:station:wmo:42887:1,2013-08-01T08:20:00Z,28.1910,-88.4960,48.2,3.5,260.0,99.0,'11111222,11111222,11144222' 
ADCP,ioos:station:wmo:42887:1,2013-08-01T08:40:00Z,28.1910,-88.4960,48.2,2.2,285.0,99.0,'11111222,11111222,11144222' 
ADCP,ioos:station:wmo:42887:1,2013-08-01T09:00:00Z,28.1910,-88.4960,48.2,2.1,261.0,99.0,'11111222,11111222,11144222' 
ADCP,ioos:station:wmo:42887:1,2013-08-01T09:20:00Z,28.1910,-88.4960,48.2,2.6,264.0,99.0,'11111222,11111222,11144222' 
ADCP,ioos:station:wmo:42887:1,2013-08-01T09:40:00Z,28.1910,-88.4960,48.2,1.8,311.0,99.0,'11111222,11111222,11144222' 
ADCP,ioos:station:wmo:42887:1,2013-08-01T10:00:00Z,28.1910,-88.4960,48.2,2.2,270.0,99.0,'11111222,11111222,11144222' 
ADCP,ioos:station:wmo:42887:1,2013-08-01T10:20:00Z,28.1910,-88.4960,48.2,2.7,245.0,99.0,'11111222,11111222,11144222' 
ADCP,ioos:station:wmo:42887:1,2013-08-01T10:40:00Z,28.1910,-88.4960,48.2,1.0,307.0,99.0,'11111222,11111222,11144222' 
ADCP,ioos:station:wmo:42887:1,2013-08-01T11:00:00Z,28.1910,-88.4960,48.2,2.0,325.0,99.0,'11111222,11111222,11144222' 
ADCP,ioos:station:wmo:42887:1,2013-08-01T11:20:00Z,28.1910,-88.4960,48.2,1.5,322.0,99.0,'11111222,11111222,11144222' 
ADCP,ioos:station:wmo:42887:1,2013-08-01T11:40:00Z,28.1910,-88.4960,48.2,0.9,312.0,99.0,'11111222,11111222,11144222' 
ADCP,ioos:station:wmo:42887:1,2013-08-01T12:00:00Z,28.1910,-88.4960,48.2,1.7,317.0,99.0,'11111222,11111222,11144222' 
ADCP,ioos:station:wmo:42887:1,2013-08-01T12:20:00Z,28.1910,-88.4960,48.2,1.5,325.0,99.0,'11111222,11111222,11144222' 
ADCP,ioos:station:wmo:42887:1,2013-08-01T12:40:00Z,28.1910,-88.4960,48.2,1.4,311.0,99.0,'11111222,11111222,11144222' 
ADCP,ioos:station:wmo:42887:1,2013-08-01T13:00:00Z,28.1910,-88.4960,48.2,1.7,324.0,99.0,'11111222,11111222,11144222' 
ADCP,ioos:station:wmo:42887:1,2013-08-01T13:20:00Z,28.1910,-88.4960,48.2,1.9,310.0,99.0,'11111222,11111222,11144222' 
ADCP,ioos:station:wmo:42887:1,2013-08-01T13:40:00Z,28.1910,-88.4960,48.2,2.7,174.0,99.0,'11111222,11111222,11144222' 
ADCP,ioos:station:wmo:42887:1,2013-08-01T14:00:00Z,28.1910,-88.4960,48.2,3.5,182.0,99.0,'11111222,11111222,11144222' 
ADCP,ioos:station:wmo:42887:1,2013-08-01T14:20:00Z,28.1910,-88.4960,48.2,2.4,172.0,99.0,'11111222,11111222,11144222' 
ADCP,ioos:station:wmo:42887:1,2013-08-01T14:40:00Z,28.1910,-88.4960,48.2,2.1,167.0,99.0,'11111222,11111222,11144222' 
ADCP,ioos:station:wmo:42887:1,2013-08-01T15:00:00Z,28.1910,-88.4960,48.2,3.0,172.0,99.0,'11111222,11111222,11144222' 
ADCP,ioos:station:wmo:42887:1,2013-08-01T15:20:00Z,28.1910,-88.4960,48.2,2.0,185.0,99.0,'11111222,11111222,11144222' 
ADCP,ioos:station:wmo:42887:1,2013-08-01T15:40:00Z,28.1910,-88.4960,48.2,2.5,176.0,99.0,'11111222,11111222,11144222' 
ADCP,ioos:station:wmo:42887:1,2013-08-01T16:00:00Z,28.1910,-88.4960,48.2,3.7,176.0,99.0,'11111222,11111222,11144222' 
ADCP,ioos:station:wmo:42887:1,2013-08-01T16:20:00Z,28.1910,-88.4960,48.2,1.7,164.0,99.0,'11111222,11111222,11144222' 
ADCP,ioos:station:wmo:42887:1,2013-08-01T16:40:00Z,28.1910,-88.4960,48.2,0.8,195.0,99.0,'11111222,11111222,11144222' 
ADCP,ioos:station:wmo:42887:1,2013-08-01T17:00:00Z,28.1910,-88.4960,48.2,0.7,190.0,99.0,'11111222,11111222,11144222' 
ADCP,ioos:station:wmo:42887:1,2013-08-01T17:20:00Z,28.1910,-88.4960,48.2,3.4,149.0,99.0,'11111222,11111222,11144222' 
ADCP,ioos:station:wmo:42887:1,2013-08-01T17:40:00Z,28.1910,-88.4960,48.2,0.9,187.0,99.0,'11111222,11111222,11144222' 
ADCP,ioos:station:wmo:42887:1,2013-08-01T18:00:00Z,28.1910,-88.4960,48.2,2.9,220.0,99.0,'11111222,11111222,11144222' 
ADCP,ioos:station:wmo:42887:1,2013-08-01T18:20:00Z,28.1910,-88.4960,48.2,8.3,258.0,99.0,'11111222,11111222,11144222' 
ADCP,ioos:station:wmo:42887:1,2013-08-01T18:40:00Z,28.1910,-88.4960,48.2,4.4,258.0,99.0,'11111222,11111222,11144222' 
ADCP,ioos:station:wmo:42887:1,2013-08-01T19:00:00Z,28.1910,-88.4960,48.2,4.1,251.0,99.0,'11111222,11111222,11144222' 
ADCP,ioos:station:wmo:42887:1,2013-08-01T19:20:00Z,28.1910,-88.4960,48.2,1.0,257.0,99.0,'11111222,11111222,11144222' 
ADCP,ioos:station:wmo:42887:1,2013-08-01T19:40:00Z,28.1910,-88.4960,48.2,0.6,282.0,99.0,'11111222,11111222,11144222' 
ADCP,ioos:station:wmo:42887:1,2013-08-01T20:00:00Z,28.1910,-88.4960,48.2,2.9,239.0,99.0,'11111222,11111222,11144222' 
ADCP,ioos:station:wmo:42887:1,2013-08-01T20:20:00Z,28.1910,-88.4960,48.2,1.2,229.0,99.0,'11111222,11111222,11144222' 
ADCP,ioos:station:wmo:42887:1,2013-08-01T20:40:00Z,28.1910,-88.4960,48.2,2.1,187.0,99.0,'11111222,11111222,11144222' 
ADCP,ioos:station:wmo:42887:1,2013-08-01T21:00:00Z,28.1910,-88.4960,48.2,1.0,243.0,99.0,'11111222,11111222,11144222' 
ADCP,ioos:station:wmo:42887:1,2013-08-01T21:20:00Z,28.1910,-88.4960,48.2,0.0,351.0,99.0,'11111222,11111222,11144222' 
ADCP,ioos:station:wmo:42887:1,2013-08-01T21:40:00Z,28.1910,-88.4960,48.2,0.8,107.0,99.0,'11111222,11111222,11144222' 
ADCP,ioos:station:wmo:42887:1,2013-08-01T22:00:00Z,28.1910,-88.4960,48.2,1.3,118.0,99.0,'11111222,11111222,11144222' 
ADCP,ioos:station:wmo:42887:1,2013-08-01T22:20:00Z,28.1910,-88.4960,48.2,1.4,183.0,99.0,'11111222,11111222,11144222' 
ADCP,ioos:station:wmo:42887:1,2013-08-01T22:40:00Z,28.1910,-88.4960,48.2,1.1,146.0,99.0,'11111222,11111222,11144222' 
ADCP,ioos:station:wmo:42887:1,2013-08-01T23:00:00Z,28.1910,-88.4960,48.2,0.0,210.0,99.0,'11111222,11111222,11144222' 
ADCP,ioos:station:wmo:42887:1,2013-08-01T23:20:00Z,28.1910,-88.4960,48.2,0.0,97.0,99.0,'11111222,11111222,11144222' 
ADCP,ioos:station:wmo:42887:1,2013-08-01T23:40:00Z,28.1910,-88.4960,48.2,0.3,24.0,99.0,'11111222,11111222,11144222' 
ADCP,ioos:station:wmo:42887:1,2013-08-02T00:00:00Z,28.1910,-88.4960,48.2,1.0,54.0,99.0,'11111222,11111222,11144222' 
ADCP,ioos:station:wmo:42887:1,2013-08-02T00:20:00Z,28.1910,-88.4960,48.2,2.1,70.0,99.0,'11111222,11111222,11144222' 
ADCP,ioos:station:wmo:42887:1,2013-08-02T00:40:00Z,28.1910,-88.4960,48.2,2.5,82.0,99.0,'11111222,11111222,11144222' 
ADCP,ioos:station:wmo:42887:1,2013-08-02T01:00:00Z,28.1910,-88.4960,48.2,2.8,79.0,99.0,'11111222,11111222,11144222' 
ADCP,ioos:station:wmo:42887:1,2013-08-02T01:20:00Z,28.1910,-88.4960,48.2,2.0,75.0,99.0,'11111222,11111222,11144222' 
ADCP,ioos:station:wmo:42887:1,2013-08-02T01:40:00Z,28.1910,-88.4960,48.2,4.4,85.0,99.0,'11111222,11111222,11144222' 
ADCP,ioos:station:wmo:42887:1,2013-08-02T02:00:00Z,28.1910,-88.4960,48.2,3.0,66.0,99.0,'11111222,11111222,11144222' 
ADCP,ioos:station:wmo:42887:1,2013-08-02T02:20:00Z,28.1910,-88.4960,48.2,2.9,74.0,99.0,'11111222,11111222,11144222' 
ADCP,ioos:station:wmo:42887:1,2013-08-02T02:40:00Z,28.1910,-88.4960,48.2,2.5,82.0,99.0,'11111222,11111222,11144222' 
ADCP,ioos:station:wmo:42887:1,2013-08-02T03:00:00Z,28.1910,-88.4960,48.2,3.0,85.0,99.0,'11111222,11111222,11144222' 
ADCP,ioos:station:wmo:42887:1,2013-08-02T03:20:00Z,28.1910,-88.4960,48.2,2.0,94.0,99.0,'11111222,11111222,11144222' 
ADCP,ioos:station:wmo:42887:1,2013-08-02T03:40:00Z,28.1910,-88.4960,48.2,2.9,90.0,99.0,'11111222,11111222,11144222' 
ADCP,ioos:station:wmo:42887:1,2013-08-02T04:00:00Z,28.1910,-88.4960,48.2,2.5,102.0,99.0,'11111222,11111222,11144222' 
ADCP,ioos:station:wmo:42887:1,2013-08-02T04:20:00Z,28.1910,-88.4960,48.2,3.1,87.0,99.0,'11111222,11111222,11144222' 
ADCP,ioos:station:wmo:42887:1,2013-08-02T04:40:00Z,28.1910,-88.4960,48.2,2.4,101.0,99.0,'11111222,11111222,11144222' 
ADCP,ioos:station:wmo:42887:1,2013-08-02T05:00:00Z,28.1910,-88.4960,48.2,3.3,93.0,99.0,'11111222,11111222,11144222' 
ADCP,ioos:station:wmo:42887:1,2013-08-02T05:20:00Z,28.1910,-88.4960,48.2,3.3,101.0,99.0,'11111222,11111222,11144222' 
ADCP,ioos:station:wmo:42887:1,2013-08-02T05:40:00Z,28.1910,-88.4960,48.2,3.5,105.0,99.0,'11111222,11111222,11144222' 
ADCP,ioos:station:wmo:42887:1,2013-08-02T06:00:00Z,28.1910,-88.4960,48.2,4.0,92.0,99.0,'11111222,11111222,11144222' 
ADCP,ioos:station:wmo:42887:1,2013-08-02T06:20:00Z,28.1910,-88.4960,48.2,3.9,100.0,99.0,'11111222,11111222,11144222' 
ADCP,ioos:station:wmo:42887:1,2013-08-02T06:40:00Z,28.1910,-88.4960,48.2,2.7,96.0,99.0,'11111222,11111222,11144222' 
ADCP,ioos:station:wmo:42887:1,2013-08-02T07:00:00Z,28.1910,-88.4960,48.2,4.1,99.0,99.0,'11111222,11111222,11144222' 
ADCP,ioos:station:wmo:42887:1,2013-08-02T07:20:00Z,28.1910,-88.4960,48.2,4.0,110.0,99.0,'11111222,11111222,11144222' 
ADCP,ioos:station:wmo:42887:1,2013-08-02T07:40:00Z,28.1910,-88.4960,48.2,4.1,110.0,99.0,'11111222,11111222,11144222' 
ADCP,ioos:station:wmo:42887:1,2013-08-02T08:00:00Z,28.1910,-88.4960,48.2,4.1,132.0,99.0,'11111222,11111222,11144222' 
ADCP,ioos:station:wmo:42887:1,2013-08-02T08:20:00Z,28.1910,-88.4960,48.2,4.4,111.0,99.0,'11111222,11111222,11144222' 
ADCP,ioos:station:wmo:42887:1,2013-08-02T08:40:00Z,28.1910,-88.4960,48.2,4.2,127.0,99.0,'11111222,11111222,11144222' 
ADCP,ioos:station:wmo:42887:1,2013-08-02T09:00:00Z,28.1910,-88.4960,48.2,3.7,135.0,99.0,'11111222,11111222,11144222' 
ADCP,ioos:station:wmo:42887:1,2013-08-02T09:20:00Z,28.1910,-88.4960,48.2,3.3,118.0,99.0,'11111222,11111222,11144222' 
ADCP,ioos:station:wmo:42887:1,2013-08-02T09:40:00Z,28.1910,-88.4960,48.2,4.3,119.0,99.0,'11111222,11111222,11144222' 
ADCP,ioos:station:wmo:42887:1,2013-08-02T10:00:00Z,28.1910,-88.4960,48.2,3.1,135.0,99.0,'11111222,11111222,11144222' 
ADCP,ioos:station:wmo:42887:1,2013-08-02T10:20:00Z,28.1910,-88.4960,48.2,2.2,150.0,99.0,'11111222,11111222,11144222' 
ADCP,ioos:station:wmo:42887:1,2013-08-02T10:40:00Z,28.1910,-88.4960,48.2,3.0,139.0,99.0,'11111222,11111222,11144222' 
ADCP,ioos:station:wmo:42887:1,2013-08-02T11:00:00Z,28.1910,-88.4960,48.2,2.3,141.0,99.0,'11111222,11111222,11144222' 
ADCP,ioos:station:wmo:42887:1,2013-08-02T11:20:00Z,28.1910,-88.4960,48.2,1.9,150.0,99.0,'11111222,11111222,11144222' 
ADCP,ioos:station:wmo:42887:1,2013-08-02T11:40:00Z,28.1910,-88.4960,48.2,2.7,141.0,99.0,'11111222,11111222,11144222' 
ADCP,ioos:station:wmo:42887:1,2013-08-02T12:00:00Z,28.1910,-88.4960,48.2,1.0,169.0,99.0,'11111222,11111222,11144222' 
ADCP,ioos:station:wmo:42887:1,2013-08-02T12:20:00Z,28.1910,-88.4960,48.2,2.0,157.0,99.0,'11111222,11111222,11144222' 
ADCP,ioos:station:wmo:42887:1,2013-08-02T12:40:00Z,28.1910,-88.4960,48.2,3.0,176.0,99.0,'11111222,11111222,11144222' 
ADCP,ioos:station:wmo:42887:1,2013-08-02T13:00:00Z,28.1910,-88.4960,48.2,2.1,171.0,99.0,'11111222,11111222,11144222' 
ADCP,ioos:station:wmo:42887:1,2013-08-02T13:20:00Z,28.1910,-88.4960,48.2,2.1,178.0,99.0,'11111222,11111222,11144222' 
ADCP,ioos:station:wmo:42887:1,2013-08-02T13:40:00Z,28.1910,-88.4960,48.2,2.2,171.0,99.0,'11111222,11111222,11144222' 
ADCP,ioos:station:wmo:42887:1,2013-08-02T14:00:00Z,28.1910,-88.4960,48.2,1.4,177.0,99.0,'11111222,11111222,11144222' 
ADCP,ioos:station:wmo:42887:1,2013-08-02T14:20:00Z,28.1910,-88.4960,48.2,1.9,153.0,99.0,'11111222,11111222,11144222' 
ADCP,ioos:station:wmo:42887:1,2013-08-02T14:40:00Z,28.1910,-88.4960,48.2,2.9,184.0,99.0,'11111222,11111222,11144222' 
ADCP,ioos:station:wmo:42887:1,2013-08-02T15:00:00Z,28.1910,-88.4960,48.2,2.1,182.0,99.0,'11111222,11111222,11144222' 
ADCP,ioos:station:wmo:42887:1,2013-08-02T15:20:00Z,28.1910,-88.4960,48.2,2.1,177.0,99.0,'11111222,11111222,11144222' 
ADCP,ioos:station:wmo:42887:1,2013-08-02T15:40:00Z,28.1910,-88.4960,48.2,5.7,201.0,99.0,'11111222,11111222,11144222' 
ADCP,ioos:station:wmo:42887:1,2013-08-02T16:00:00Z,28.1910,-88.4960,48.2,2.0,191.0,99.0,'11111222,11111222,11144222' 
ADCP,ioos:station:wmo:42887:1,2013-08-02T16:20:00Z,28.1910,-88.4960,48.2,2.9,216.0,99.0,'11111222,11111222,11144222' 
ADCP,ioos:station:wmo:42887:1,2013-08-02T16:40:00Z,28.1910,-88.4960,48.2,0.4,168.0,99.0,'11111222,11111222,11144222' 
ADCP,ioos:station:wmo:42887:1,2013-08-02T17:00:00Z,28.1910,-88.4960,48.2,0.6,155.0,99.0,'11111222,11111222,11144222' 
ADCP,ioos:station:wmo:42887:1,2013-08-02T17:20:00Z,28.1910,-88.4960,48.2,0.4,173.0,99.0,'11111222,11111222,11144222' 
ADCP,ioos:station:wmo:42887:1,2013-08-02T17:40:00Z,28.1910,-88.4960,48.2,0.5,177.0,99.0,'11111222,11111222,11144222' 
ADCP,ioos:station:wmo:42887:1,2013-08-02T18:00:00Z,28.1910,-88.4960,48.2,1.0,97.0,99.0,'11111222,11111222,11144222' 
ADCP,ioos:station:wmo:42887:1,2013-08-02T18:20:00Z,28.1910,-88.4960,48.2,2.1,89.0,99.0,'11111222,11111222,11144222' 
ADCP,ioos:station:wmo:42887:1,2013-08-02T18:40:00Z,28.1910,-88.4960,48.2,2.1,83.0,99.0,'11111222,11111222,11144222' 
ADCP,ioos:station:wmo:42887:1,2013-08-02T19:00:00Z,28.1910,-88.4960,48.2,2.1,108.0,99.0,'11111222,11111222,11144222' 
ADCP,ioos:station:wmo:42887:1,2013-08-02T19:20:00Z,28.1910,-88.4960,48.2,1.9,98.0,99.0,'11111222,11111222,11144222' 
ADCP,ioos:station:wmo:42887:1,2013-08-02T19:40:00Z,28.1910,-88.4960,48.2,2.8,95.0,99.0,'11111222,11111222,11144222' 
ADCP,ioos:station:wmo:42887:1,2013-08-02T20:00:00Z,28.1910,-88.4960,48.2,1.7,104.0,99.0,'11111222,11111222,11144222' 
ADCP,ioos:station:wmo:42887:1,2013-08-02T20:20:00Z,28.1910,-88.4960,48.2,2.8,105.0,99.0,'11111222,11111222,11144222' 
ADCP,ioos:station:wmo:42887:1,2013-08-02T20:40:00Z,28.1910,-88.4960,48.2,2.4,126.0,99.0,'11111222,11111222,11144222' 
ADCP,ioos:station:wmo:42887:1,2013-08-02T21:00:00Z,28.1910,-88.4960,48.2,2.3,122.0,99.0,'11111222,11111222,11144222' 
ADCP,ioos:station:wmo:42887:1,2013-08-02T21:20:00Z,28.1910,-88.4960,48.2,2.1,78.0,99.0,'11111222,11111222,11144222' 
ADCP,ioos:station:wmo:42887:1,2013-08-02T21:40:00Z,28.1910,-88.4960,48.2,1.7,120.0,99.0,'11111222,11111222,11144222' 
ADCP,ioos:station:wmo:42887:1,2013-08-02T22:00:00Z,28.1910,-88.4960,48.2,1.9,93.0,99.0,'11111222,11111222,11144222' 
ADCP,ioos:station:wmo:42887:1,2013-08-02T22:20:00Z,28.1910,-88.4960,48.2,2.2,106.0,99.0,'11111222,11111222,11144222' 
ADCP,ioos:station:wmo:42887:1,2013-08-02T22:40:00Z,28.1910,-88.4960,48.2,3.0,108.0,99.0,'11111222,11111222,11144222' 
ADCP,ioos:station:wmo:42887:1,2013-08-02T23:00:00Z,28.1910,-88.4960,48.2,2.0,104.0,99.0,'11111222,11111222,11144222' 
ADCP,ioos:station:wmo:42887:1,2013-08-02T23:20:00Z,28.1910,-88.4960,48.2,3.1,111.0,99.0,'11111222,11111222,11144222' 
ADCP,ioos:station:wmo:42887:1,2013-08-02T23:40:00Z,28.1910,-88.4960,48.2,3.0,102.0,99.0,'11111222,11111222,11144222' 
ADCP,ioos:station:wmo:42887:1,2013-08-03T00:00:00Z,28.1910,-88.4960,48.2,1.8,97.0,99.0,'11111222,11111222,11144222' 
ADCP,ioos:station:wmo:42887:1,2013-08-03T00:20:00Z,28.1910,-88.4960,48.2,2.5,86.0,99.0,'11111222,11111222,11144222' 
ADCP,ioos:station:wmo:42887:1,2013-08-03T00:40:00Z,28.1910,-88.4960,48.2,2.8,93.0,99.0,'11111222,11111222,11144222' 
ADCP,ioos:station:wmo:42887:1,2013-08-03T01:00:00Z,28.1910,-88.4960,48.2,2.8,103.0,99.0,'11111222,11111222,11144222' 
ADCP,ioos:station:wmo:42887:1,2013-08-03T01:20:00Z,28.1910,-88.4960,48.2,2.7,86.0,99.0,'11111222,11111222,11144222' 
ADCP,ioos:station:wmo:42887:1,2013-08-03T01:40:00Z,28.1910,-88.4960,48.2,3.2,83.0,99.0,'11111222,11111222,11144222' 
ADCP,ioos:station:wmo:42887:1,2013-08-03T02:00:00Z,28.1910,-88.4960,48.2,2.5,83.0,99.0,'11111222,11111222,11144222' 
ADCP,ioos:station:wmo:42887:1,2013-08-03T02:20:00Z,28.1910,-88.4960,48.2,2.2,69.0,99.0,'11111222,11111222,11144222' 
ADCP,ioos:station:wmo:42887:1,2013-08-03T02:40:00Z,28.1910,-88.4960,48.2,3.0,70.0,99.0,'11111222,11111222,11144222' 
ADCP,ioos:station:wmo:42887:1,2013-08-03T03:00:00Z,28.1910,-88.4960,48.2,2.6,79.0,99.0,'11111222,11111222,11144222' 
ADCP,ioos:station:wmo:42887:1,2013-08-03T03:20:00Z,28.1910,-88.4960,48.2,2.7,76.0,99.0,'11111222,11111222,11144222' 
ADCP,ioos:station:wmo:42887:1,2013-08-03T03:40:00Z,28.1910,-88.4960,48.2,3.5,76.0,99.0,'11111222,11111222,11144222' 
ADCP,ioos:station:wmo:42887:1,2013-08-03T04:00:00Z,28.1910,-88.4960,48.2,3.3,82.0,99.0,'11111222,11111222,11144222' 
ADCP,ioos:station:wmo:42887:1,2013-08-03T04:20:00Z,28.1910,-88.4960,48.2,3.2,87.0,99.0,'11111222,11111222,11144222' 
ADCP,ioos:station:wmo:42887:1,2013-08-03T04:40:00Z,28.1910,-88.4960,48.2,3.8,78.0,99.0,'11111222,11111222,11144222' 
ADCP,ioos:station:wmo:42887:1,2013-08-03T05:00:00Z,28.1910,-88.4960,48.2,4.1,77.0,99.0,'11111222,11111222,11144222' 
ADCP,ioos:station:wmo:42887:1,2013-08-03T05:20:00Z,28.1910,-88.4960,48.2,4.0,78.0,99.0,'11111222,11111222,11144222' 
ADCP,ioos:station:wmo:42887:1,2013-08-03T05:40:00Z,28.1910,-88.4960,48.2,2.5,87.0,99.0,'11111222,11111222,11144222' 
ADCP,ioos:station:wmo:42887:1,2013-08-03T06:00:00Z,28.1910,-88.4960,48.2,4.0,88.0,99.0,'11111222,11111222,11144222' 
ADCP,ioos:station:wmo:42887:1,2013-08-03T06:20:00Z,28.1910,-88.4960,48.2,4.0,83.0,99.0,'11111222,11111222,11144222' 
ADCP,ioos:station:wmo:42887:1,2013-08-03T06:40:00Z,28.1910,-88.4960,48.2,3.7,85.0,99.0,'11111222,11111222,11144222' 
ADCP,ioos:station:wmo:42887:1,2013-08-03T07:00:00Z,28.1910,-88.4960,48.2,4.2,82.0,99.0,'11111222,11111222,11144222' 
ADCP,ioos:station:wmo:42887:1,2013-08-03T07:20:00Z,28.1910,-88.4960,48.2,4.7,84.0,99.0,'11111222,11111222,11144222' 
ADCP,ioos:station:wmo:42887:1,2013-08-03T07:40:00Z,28.1910,-88.4960,48.2,4.0,83.0,99.0,'11111222,11111222,11144222' 
ADCP,ioos:station:wmo:42887:1,2013-08-03T08:00:00Z,28.1910,-88.4960,48.2,4.4,88.0,99.0,'11111222,11111222,11144222' 
ADCP,ioos:station:wmo:42887:1,2013-08-03T08:20:00Z,28.1910,-88.4960,48.2,4.1,84.0,99.0,'11111222,11111222,11144222' 
ADCP,ioos:station:wmo:42887:1,2013-08-03T08:40:00Z,28.1910,-88.4960,48.2,4.2,96.0,99.0,'11111222,11111222,11144222' 
ADCP,ioos:station:wmo:42887:1,2013-08-03T09:00:00Z,28.1910,-88.4960,48.2,3.9,92.0,99.0,'11111222,11111222,11144222' 
ADCP,ioos:station:wmo:42887:1,2013-08-03T09:20:00Z,28.1910,-88.4960,48.2,4.5,95.0,99.0,'11111222,11111222,11144222' 
ADCP,ioos:station:wmo:42887:1,2013-08-03T09:40:00Z,28.1910,-88.4960,48.2,3.4,97.0,99.0,'11111222,11111222,11144222' 
ADCP,ioos:station:wmo:42887:1,2013-08-03T10:00:00Z,28.1910,-88.4960,48.2,2.6,93.0,99.0,'11111222,11111222,11144222' 
ADCP,ioos:station:wmo:42887:1,2013-08-03T10:20:00Z,28.1910,-88.4960,48.2,3.1,102.0,99.0,'11111222,11111222,11144222' 
ADCP,ioos:station:wmo:42887:1,2013-08-03T10:40:00Z,28.1910,-88.4960,48.2,3.3,112.0,99.0,'11111222,11111222,11144222' 
ADCP,ioos:station:wmo:42887:1,2013-08-03T11:00:00Z,28.1910,-88.4960,48.2,2.1,106.0,99.0,'11111222,11111222,11144222' 
ADCP,ioos:station:wmo:42887:1,2013-08-03T11:20:00Z,28.1910,-88.4960,48.2,2.9,109.0,99.0,'11111222,11111222,11144222' 
ADCP,ioos:station:wmo:42887:1,2013-08-03T11:40:00Z,28.1910,-88.4960,48.2,2.5,124.0,99.0,'11111222,11111222,11144222' 
ADCP,ioos:station:wmo:42887:1,2013-08-03T12:00:00Z,28.1910,-88.4960,48.2,2.4,138.0,99.0,'11111222,11111222,11144222' 
ADCP,ioos:station:wmo:42887:1,2013-08-03T12:20:00Z,28.1910,-88.4960,48.2,2.5,103.0,99.0,'11111222,11111222,11144222' 
ADCP,ioos:station:wmo:42887:1,2013-08-03T12:40:00Z,28.1910,-88.4960,48.2,2.7,95.0,99.0,'11111222,11111222,11144222' 
ADCP,ioos:station:wmo:42887:1,2013-08-03T13:00:00Z,28.1910,-88.4960,48.2,2.2,116.0,99.0,'11111222,11111222,11144222' 
ADCP,ioos:station:wmo:42887:1,2013-08-03T13:20:00Z,28.1910,-88.4960,48.2,2.3,109.0,99.0,'11111222,11111222,11144222' 
ADCP,ioos:station:wmo:42887:1,2013-08-03T13:40:00Z,28.1910,-88.4960,48.2,2.1,110.0,99.0,'11111222,11111222,11144222' 
ADCP,ioos:station:wmo:42887:1,2013-08-03T14:00:00Z,28.1910,-88.4960,48.2,1.6,105.0,99.0,'11111222,11111222,11144222' 
ADCP,ioos:station:wmo:42887:1,2013-08-03T14:20:00Z,28.1910,-88.4960,48.2,1.8,101.0,99.0,'11111222,11111222,11144222' 
ADCP,ioos:station:wmo:42887:1,2013-08-03T14:40:00Z,28.1910,-88.4960,48.2,1.8,97.0,99.0,'11111222,11111222,11144222' 
ADCP,ioos:station:wmo:42887:1,2013-08-03T15:00:00Z,28.1910,-88.4960,48.2,1.6,116.0,99.0,'11111222,11111222,11144222' 
ADCP,ioos:station:wmo:42887:1,2013-08-03T15:20:00Z,28.1910,-88.4960,48.2,2.1,91.0,99.0,'11111222,11111222,11144222' 
ADCP,ioos:station:wmo:42887:1,2013-08-03T15:40:00Z,28.1910,-88.4960,48.2,1.8,102.0,99.0,'11111222,11111222,11144222' 
ADCP,ioos:station:wmo:42887:1,2013-08-03T16:00:00Z,28.1910,-88.4960,48.2,2.5,98.0,99.0,'11111222,11111222,11144222' 
ADCP,ioos:station:wmo:42887:1,2013-08-03T16:20:00Z,28.1910,-88.4960,48.2,2.1,106.0,99.0,'11111222,11111222,11144222' 
ADCP,ioos:station:wmo:42887:1,2013-08-03T16:40:00Z,28.1910,-88.4960,48.2,1.2,117.0,99.0,'11111222,11111222,11144222' 
ADCP,ioos:station:wmo:42887:1,2013-08-03T17:00:00Z,28.1910,-88.4960,48.2,1.2,149.0,99.0,'11111222,11111222,11144222' 
ADCP,ioos:station:wmo:42887:1,2013-08-03T17:20:00Z,28.1910,-88.4960,48.2,1.5,138.0,99.0,'11111222,11111222,11144222' 
ADCP,ioos:station:wmo:42887:1,2013-08-03T17:40:00Z,28.1910,-88.4960,48.2,0.8,165.0,99.0,'11111222,11111222,11144222' 
ADCP,ioos:station:wmo:42887:1,2013-08-03T18:00:00Z,28.1910,-88.4960,48.2,0.6,155.0,99.0,'11111222,11111222,11144222' 
ADCP,ioos:station:wmo:42887:1,2013-08-03T18:20:00Z,28.1910,-88.4960,48.2,0.2,167.0,99.0,'11111222,11111222,11144222' 
ADCP,ioos:station:wmo:42887:1,2013-08-03T18:40:00Z,28.1910,-88.4960,48.2,1.0,133.0,99.0,'11111222,11111222,11144222' 
ADCP,ioos:station:wmo:42887:1,2013-08-03T19:00:00Z,28.1910,-88.4960,48.2,0.7,160.0,99.0,'11111222,11111222,11144222' 